This is the latest recevied weather packets stored in our database for station/object KQ4UPF. If no packets are shown the sender has not sent any weather packets the latest 10 day(s).
| Time | Temp. | Humidity | Pressure | Rain* | Wind** | Luminosity | Snow |
|---|---|---|---|---|---|---|---|
| 1777226380 | 26.67° C | 56% | 1014.4 hPa | 0 mm | - | 895 W/m² | - |
| 1777226076 | 26.11° C | 58% | 1014.3 hPa | 0 mm | - | 1152 W/m² | - |
| 1777225772 | 25.56° C | 66% | 1014.4 hPa | 0 mm | - | 290 W/m² | - |
| 1777225469 | 26.11° C | 62% | 1014.3 hPa | 0 mm | - | 325 W/m² | - |
| 1777225167 | 26.11° C | 60% | 1014.4 hPa | 0 mm | - | 929 W/m² | - |
| 1777224863 | 26.67° C | 64% | 1014.5 hPa | 0 mm | - | 1091 W/m² | - |
| 1777224558 | 26.11° C | 61% | 1014.4 hPa | 0 mm | - | 1080 W/m² | - |
| 1777224255 | 26.11° C | 63% | 1014.5 hPa | 0 mm | - | 1104 W/m² | - |
| 1777223952 | 25.56° C | 62% | 1014.5 hPa | 0 mm | - | 1098 W/m² | - |
| 1777223648 | 25° C | 62% | 1014.6 hPa | 0 mm | - | 1083 W/m² | - |
| 1777223344 | 24.44° C | 66% | 1014.6 hPa | 0 mm | - | 1058 W/m² | - |
| 1777223042 | 25° C | 67% | 1014.5 hPa | 0 mm | - | 813 W/m² | - |
| 1777222739 | 26.11° C | 65% | 1014.7 hPa | 0 mm | - | 241 W/m² | - |
| 1777222437 | 25.56° C | 66% | 1014.6 hPa | 0 mm | - | 1126 W/m² | - |
| 1777222134 | 25.56° C | 67% | 1014.5 hPa | 0 mm | - | 1094 W/m² | - |
| 1777221830 | 25° C | 65% | 1014.4 hPa | 0 mm | - | 981 W/m² | - |
| 1777221527 | 25° C | 68% | 1014.6 hPa | 0 mm | - | 813 W/m² | - |
| 1777221224 | 25° C | 68% | 1014.6 hPa | 0 mm | - | 920 W/m² | - |
| 1777220920 | 24.44° C | 67% | 1014.5 hPa | 0 mm | - | 1036 W/m² | - |
| 1777220616 | 24.44° C | 70% | 1014.7 hPa | 0 mm | - | 299 W/m² | - |
| 1777220313 | 25° C | 67% | 1014.7 hPa | 0 mm | - | 285 W/m² | - |
| 1777220007 | 24.44° C | 72% | 1014.9 hPa | 0 mm | - | 1032 W/m² | - |
| 1777219704 | 24.44° C | 70% | 1014.7 hPa | 0 mm | - | 1027 W/m² | - |
| 1777219402 | 24.44° C | 69% | 1014.6 hPa | 0 mm | - | 854 W/m² | - |
| 1777219098 | 24.44° C | 71% | 1014.9 hPa | 0 mm | - | 433 W/m² | - |
* Rain latest hour (hover to see other rain measurements)
** Current wind speed in m/s (hover to see current wind gust speed)